Location: Brusselsch Zeekanaal
(50.8667°N, 4.3667°E)
Time: 01:50:15
(UTC+00:00)

ADEOS II - Pass Details

Date: 08 November 2025
Orbit: 794 x 794 km, 98.8° (Epoch: 15 December)

Event Time Altitude Azimuth Distance (km) Brightness Sun altitude
Rises 03:36:17 0° 10° (N) 3,311 5.5 -30.1°
Reaches altitude 10° 03:38:44 10° 3° (N) 2,377 4.7 -29.7°
Enters shadow 03:40:08 18° 356° (N) 1,884 4.0 -29.5°
